Location: Härggis
(46.9540°N, 8.4897°E)
Time: 20:18:11
(UTC+00:00)

IDEFIX/ARIANE 42P - Pass Details

Date: 27 May 2022
Orbit: 785 x 802 km, 98.5° (Epoch: 02 July)

Event Time Altitude Azimuth Distance (km) Brightness Sun altitude
Rises 02:49:31 0° 6° (N) 3,325 6.6 -7.5°
Reaches altitude 10° 02:52:04 10° 356° (N) 2,391 5.6 -7.1°
Maximum altitude 02:56:40 31° 296° (WNW) 1,374 3.6 -6.6°
Drops below altitude 10° 03:01:14 10° 235° (SW) 2,374 4.4 -6.0°
Enters shadow 03:01:57 - 232° (SW) 2,627 4.6 -5.9°
